Погода в Советском

Россия / Калининградская область     54°50′55″N   21°37′20″E
темп.,
°C
ветер,
м/с
пор.,
м/с
влажн.,
%
обл.,
%
осадки,
мм/ч
давл.,
гПа
погр.,
м
23 октября, сб
сб2323:00+7зюз61374100 0.3 1001790
02:00+6зюз513775 1.0 1003591
05:00+5зюз513847 0.4 1004560
08:00+6зюз51287100 0.8 1006547
11:00+9зсз597099 1.6 10091178
14:00+9сз697011 2.5 10121315
17:00+7сз5117648 0.6 1016588
20:00+6сз497792 1.0 1020520
24 октября, вс
вс2423:00+6сз497497 0.3 1023495
02:00+6сз3976100 0.4 1025416
05:00+5зсз268097 0.1 1026207
08:00+4з2283100 0.1 102847
11:00+8з3569100 0.0 1030479
14:00+9зюз3463100 0.0 1029868
17:00+6юз2578100 0.0 102992
20:00+5ююз368653 0.0 1029119
25 октября, пн
пн2523:00+4ююз389377 0.0 1029163
02:00+3ююз399316 0.0 1028201
05:00+3ююз310925 0.0 1027221
08:00+3ю311895 0.0 1026260
11:00+8ююз5116430 0.0 1025441
14:00+11ю511545 0.0 1023755
17:00+8ю4116352 0.0 1022348
20:00+7ю4136774 0.0 1021345
26 октября, вт
вт2623:00+6ююз41269100 0.0 1020282
02:00+5ююз31075100 0.0 1020209
05:00+4ююз3881100 0.0 1019165
08:00+4ююз3983100 0.0 1018180
11:00+8юз4771100 0.0 1018309
14:00+11юз4867100 0.0 1018642
17:00+9юз3976100 0.0 1018452
20:00+8юз4987100 0.4 1018385
27 октября, ср
ср2723:00+9зюз41188100 0.1 1018506
02:00+8зюз4119529 0.1 1019417
05:00+7зюз3109654 0.0 1019319
08:00+7зюз3109749 0.0 1020310
11:00+10зюз598395 0.0 1021562
14:00+12зюз587267 0.0 1021892
17:00+10зюз3977100 0.0 1021522
20:00+10зюз41184100 0.0 1022623